Location: Bats
(43.6587°N, 0.4584°W)
Time: 23:19:54
(UTC+00:00)

Cosmos 1943 - Visible Passes

Search period start: 18 April 2026 00:00
Search period end: 28 April 2026 00:00
Orbit: 831 x 848 km, 71.0° (Epoch: 18 April)

Date Brightness Start Highest point End Pass type
(mag) Time Alt. Az. Time Alt. Az. Time Alt. Az.
18 Apr 4.4 21:30:26 29° ENE 21:30:26 29° ENE 21:33:35 10° NE visible
18 Apr 4.5 23:12:08 34° WNW 23:12:24 35° NW 23:17:35 10° N visible
19 Apr 4.1 21:14:09 31° ENE 21:14:09 31° ENE 21:17:52 10° NE visible
19 Apr 4.4 22:55:50 35° WNW 22:56:42 36° NW 23:01:56 10° N visible
20 Apr 3.9 20:57:39 33° E 20:57:39 33° E 21:02:08 10° NE visible
20 Apr 4.4 22:39:19 31° W 22:41:00 39° WNW 22:46:18 10° NNE visible
21 Apr 3.9 20:40:49 31° ESE 20:41:27 32° ESE 20:46:24 10° NE visible
21 Apr 4.3 22:22:27 24° WSW 22:25:18 41° WNW 22:30:40 10° NNE visible
22 Apr 4.0 20:23:24 22° SE 20:25:49 30° ESE 20:30:40 10° NE visible
22 Apr 4.2 22:04:58 14° SW 22:09:37 43° WNW 22:15:01 10° NNE visible
23 Apr 4.0 20:05:26 10° SSE 20:10:10 28° ESE 20:14:55 10° NE visible
23 Apr 4.2 21:48:29 10° SW 21:53:55 46° WNW 21:59:22 10° NNE visible
24 Apr 4.1 19:49:56 10° SSE 19:54:32 26° ESE 19:59:10 10° NE visible
24 Apr 4.1 21:32:44 10° SW 21:38:14 48° WNW 21:43:43 10° NNE visible
24 Apr 6.3 23:23:14 10° NW 23:23:42 10° NW 23:24:11 10° NNW visible
25 Apr 4.2 19:34:25 10° SSE 19:38:54 25° ESE 19:43:23 10° NE visible
25 Apr 4.0 21:17:00 10° SW 21:22:32 51° WNW 21:28:04 10° NNE visible
25 Apr 6.2 23:06:43 10° NW 23:07:57 11° NW 23:09:12 10° NNW visible
26 Apr 6.1 04:26:26 10° N 04:30:11 18° NE 04:33:54 10° E visible
26 Apr 4.3 19:18:54 10° SSE 19:23:15 23° ESE 19:27:36 10° NE visible
26 Apr 3.9 21:01:17 10° SW 21:06:50 54° WNW 21:12:25 10° NNE visible
26 Apr 6.2 22:50:31 10° WNW 22:52:12 11° NW 22:53:53 10° NNW visible
27 Apr 6.1 04:10:52 10° N 04:14:26 17° NE 04:18:01 10° E visible
27 Apr 3.8 20:45:34 10° SW 20:51:09 58° WNW 20:56:45 10° NNE visible
27 Apr 6.2 22:34:25 10° WNW 22:36:26 12° NW 22:38:29 10° NNW visible
